Time,TemperatureF,DewpointF,PressureIn,WindDirection,WindDirectionDegrees,WindSpeedMPH,WindSpeedGustMPH,Humidity,HourlyPrecipIn,Conditions,Clouds,dailyrainin,SoftwareType,DateUTC
2013-03-19 00:09:00,41.4,26.0,29.93,North,0,7.0,-999.0,54,-99.99,,,0.00,weatherlink.com 1.10,2013-03-19 07:09:00,
2013-03-19 00:24:00,41.5,26.0,29.93,NNW,339,8.0,-999.0,54,-99.99,,,0.00,weatherlink.com 1.10,2013-03-19 07:24:00,
2013-03-19 00:39:00,41.7,26.0,29.93,NW,326,4.0,-999.0,53,-99.99,,,0.00,weatherlink.com 1.10,2013-03-19 07:39:00,
2013-03-19 00:54:00,41.7,27.0,29.91,North,0,5.0,-999.0,56,-99.99,,,0.00,weatherlink.com 1.10,2013-03-19 07:54:00,
2013-03-19 01:09:00,41.4,27.0,29.91,NNW,332,12.0,-999.0,57,-99.99,,,0.00,weatherlink.com 1.10,2013-03-19 08:09:00,
2013-03-19 01:24:00,41.5,26.0,29.92,North,0,6.0,-999.0,54,-99.99,,,0.00,weatherlink.com 1.10,2013-03-19 08:24:00,
2013-03-19 01:39:00,41.7,25.0,29.93,NNE,18,4.0,-999.0,52,-99.99,,,0.00,weatherlink.com 1.10,2013-03-19 08:39:00,
2013-03-19 01:54:00,41.7,25.0,29.93,North,357,0.0,-999.0,51,-99.99,,,0.00,weatherlink.com 1.10,2013-03-19 08:54:00,
2013-03-19 02:09:00,41.5,26.0,29.93,West,271,0.0,-999.0,54,-99.99,,,0.00,weatherlink.com 1.10,2013-03-19 09:09:00,
2013-03-19 02:23:00,40.8,28.0,29.94,SW,226,0.0,-999.0,61,-99.99,,,0.00,weatherlink.com 1.10,2013-03-19 09:23:00,
2013-03-19 02:38:00,40.5,29.0,29.94,North,354,3.0,-999.0,64,-99.99,,,0.00,weatherlink.com 1.10,2013-03-19 09:38:00,
2013-03-19 02:53:00,40.2,29.0,29.95,NW,326,0.0,-999.0,65,-99.99,,,0.00,weatherlink.com 1.10,2013-03-19 09:53:00,
2013-03-19 03:08:00,40.0,30.0,29.95,NW,323,1.0,-999.0,67,-99.99,,,0.00,weatherlink.com 1.10,2013-03-19 10:08:00,
2013-03-19 03:23:00,39.7,29.0,29.94,West,270,0.0,-999.0,67,-99.99,,,0.00,weatherlink.com 1.10,2013-03-19 10:23:00,
2013-03-19 03:38:00,39.5,30.0,29.95,South,172,5.0,-999.0,69,-99.99,,,0.00,weatherlink.com 1.10,2013-03-19 10:38:00,
2013-03-19 03:53:00,39.7,30.0,29.93,North,357,0.0,-999.0,69,-99.99,,,0.00,weatherlink.com 1.10,2013-03-19 10:53:00,
2013-03-19 04:08:00,39.4,30.0,29.93,NW,325,0.0,-999.0,69,-99.99,,,0.00,weatherlink.com 1.10,2013-03-19 11:08:00,
2013-03-19 04:23:00,39.2,30.0,29.96,North,10,3.0,-999.0,69,-99.99,,,0.00,weatherlink.com 1.10,2013-03-19 11:23:00,
2013-03-19 04:38:00,38.9,30.0,29.96,WNW,299,0.0,-999.0,71,-99.99,,,0.00,weatherlink.com 1.10,2013-03-19 11:38:00,
2013-03-19 04:53:00,38.8,30.0,29.96,NW,311,2.0,-999.0,70,-99.99,,,0.00,weatherlink.com 1.10,2013-03-19 11:53:00,
2013-03-19 05:08:00,38.7,30.0,29.96,NNW,346,0.0,-999.0,71,-99.99,,,0.00,weatherlink.com 1.10,2013-03-19 12:08:00,
2013-03-19 05:23:00,38.5,30.0,29.97,NNW,340,0.0,-999.0,72,-99.99,,,0.00,weatherlink.com 1.10,2013-03-19 12:23:00,
2013-03-19 05:38:00,38.2,31.0,29.97,NW,316,2.0,-999.0,75,-99.99,,,0.00,weatherlink.com 1.10,2013-03-19 12:38:00,
2013-03-19 05:53:00,37.9,31.0,29.98,NE,44,6.0,-999.0,76,-99.99,,,0.00,weatherlink.com 1.10,2013-03-19 12:53:00,
2013-03-19 06:08:00,38.1,32.0,29.98,NNW,339,6.0,-999.0,77,-99.99,,,0.00,weatherlink.com 1.10,2013-03-19 13:08:00,
2013-03-19 06:23:00,38.2,32.0,29.98,NW,326,5.0,-999.0,77,-99.99,,,0.00,weatherlink.com 1.10,2013-03-19 13:23:00,
2013-03-19 06:53:00,38.1,31.0,30.00,North,0,0.0,-999.0,75,-99.99,,,0.00,weatherlink.com 1.10,2013-03-19 13:53:00,
2013-03-19 07:08:00,37.9,31.0,30.00,ENE,69,2.0,-999.0,77,-99.99,,,0.00,weatherlink.com 1.10,2013-03-19 14:08:00,
2013-03-19 07:23:00,37.9,32.0,30.01,NE,55,16.0,-999.0,79,-99.99,,,0.00,weatherlink.com 1.10,2013-03-19 14:23:00,
2013-03-19 07:38:00,38.2,32.0,30.01,North,6,6.0,-999.0,79,-99.99,,,0.00,weatherlink.com 1.10,2013-03-19 14:38:00,
2013-03-19 07:53:00,38.8,30.0,30.02,NNW,332,6.0,-999.0,70,-99.99,,,0.00,weatherlink.com 1.10,2013-03-19 14:53:00,
2013-03-19 08:08:00,40.1,31.0,30.02,NNE,13,2.0,-999.0,69,-99.99,,,0.00,weatherlink.com 1.10,2013-03-19 15:08:00,
2013-03-19 08:23:00,41.4,30.0,30.04,North,359,0.0,-999.0,64,-99.99,,,0.00,weatherlink.com 1.10,2013-03-19 15:23:00,
2013-03-19 08:38:00,42.4,31.0,30.03,SSE,162,0.0,-999.0,65,-99.99,,,0.00,weatherlink.com 1.10,2013-03-19 15:38:00,
2013-03-19 08:53:00,43.8,28.0,30.04,West,272,1.0,-999.0,55,-99.99,,,0.00,weatherlink.com 1.10,2013-03-19 15:53:00,
2013-03-19 09:23:00,45.5,29.0,30.03,SSE,151,2.0,-999.0,52,-99.99,,,0.00,weatherlink.com 1.10,2013-03-19 16:23:00,
2013-03-19 09:38:00,45.8,28.0,30.03,ESE,107,3.0,-999.0,51,-99.99,,,0.00,weatherlink.com 1.10,2013-03-19 16:38:00,
2013-03-19 09:53:00,47.3,29.0,30.03,South,175,6.0,-999.0,49,-99.99,,,0.00,weatherlink.com 1.10,2013-03-19 16:53:00,
2013-03-19 10:08:00,47.7,29.0,30.03,SW,224,5.0,-999.0,48,-99.99,,,0.00,weatherlink.com 1.10,2013-03-19 17:08:00,
2013-03-19 10:23:00,48.5,29.0,30.02,WNW,292,10.0,-999.0,47,-99.99,,,0.00,weatherlink.com 1.10,2013-03-19 17:23:00,
2013-03-19 10:38:00,50.3,25.0,30.02,North,356,4.0,-999.0,37,-99.99,,,0.00,weatherlink.com 1.10,2013-03-19 17:38:00,
2013-03-19 10:53:00,50.0,21.0,30.02,WNW,289,0.0,-999.0,32,-99.99,,,0.00,weatherlink.com 1.10,2013-03-19 17:53:00,
2013-03-19 11:09:00,51.3,19.0,30.02,WNW,298,8.0,-999.0,28,-99.99,,,0.00,weatherlink.com 1.10,2013-03-19 18:09:00,
2013-03-19 11:23:00,52.2,22.0,30.02,WNW,301,7.0,-999.0,31,-99.99,,,0.00,weatherlink.com 1.10,2013-03-19 18:23:00,
2013-03-19 11:38:00,52.5,22.0,30.02,NW,319,16.0,-999.0,31,-99.99,,,0.00,weatherlink.com 1.10,2013-03-19 18:38:00,
2013-03-19 11:53:00,53.1,27.0,30.01,NNW,342,12.0,-999.0,36,-99.99,,,0.00,weatherlink.com 1.10,2013-03-19 18:53:00,
2013-03-19 12:08:00,53.5,28.0,30.02,NNW,340,7.0,-999.0,37,-99.99,,,0.00,weatherlink.com 1.10,2013-03-19 19:08:00,
2013-03-19 12:23:00,54.2,28.0,30.01,WNW,282,1.0,-999.0,36,-99.99,,,0.00,weatherlink.com 1.10,2013-03-19 19:23:00,
2013-03-19 12:38:00,54.2,29.0,30.01,WNW,295,4.0,-999.0,38,-99.99,,,0.00,weatherlink.com 1.10,2013-03-19 19:38:00,
2013-03-19 13:08:00,54.4,29.0,30.00,WNW,284,1.0,-999.0,38,-99.99,,,0.00,weatherlink.com 1.10,2013-03-19 20:08:00,
2013-03-19 13:23:00,55.0,31.0,30.00,West,271,9.0,-999.0,41,-99.99,,,0.00,weatherlink.com 1.10,2013-03-19 20:23:00,
2013-03-19 13:38:00,54.7,32.0,29.99,NNW,333,4.0,-999.0,42,-99.99,,,0.00,weatherlink.com 1.10,2013-03-19 20:38:00,
2013-03-19 13:53:00,56.0,31.0,29.99,North,359,2.0,-999.0,39,-99.99,,,0.00,weatherlink.com 1.10,2013-03-19 20:53:00,
2013-03-19 19:09:00,47.3,29.0,30.06,ENE,76,0.0,-999.0,49,-99.99,,,0.00,weatherlink.com 1.10,2013-03-20 02:09:00,
2013-03-19 19:23:00,46.9,29.0,30.05,SW,230,0.0,-999.0,51,-99.99,,,0.00,weatherlink.com 1.10,2013-03-20 02:23:00,
2013-03-19 19:38:00,46.0,30.0,30.06,West,263,0.0,-999.0,54,-99.99,,,0.00,weatherlink.com 1.10,2013-03-20 02:38:00,
2013-03-19 19:53:00,46.3,30.0,30.07,NNW,346,0.0,-999.0,53,-99.99,,,0.00,weatherlink.com 1.10,2013-03-20 02:53:00,
2013-03-19 20:08:00,46.6,31.0,30.05,North,10,0.0,-999.0,54,-99.99,,,0.00,weatherlink.com 1.10,2013-03-20 03:08:00,
2013-03-19 20:23:00,46.9,31.0,30.04,NW,325,0.0,-999.0,55,-99.99,,,0.00,weatherlink.com 1.10,2013-03-20 03:23:00,
2013-03-19 20:38:00,46.6,32.0,30.04,North,350,0.0,-999.0,57,-99.99,,,0.00,weatherlink.com 1.10,2013-03-20 03:38:00,
2013-03-19 20:53:00,46.4,32.0,30.04,SE,144,0.0,-999.0,58,-99.99,,,0.00,weatherlink.com 1.10,2013-03-20 03:53:00,
2013-03-19 21:08:00,46.0,33.0,30.04,North,0,0.0,-999.0,61,-99.99,,,0.00,weatherlink.com 1.10,2013-03-20 04:08:00,
2013-03-19 21:23:00,45.4,32.0,30.01,ESE,121,10.0,-999.0,61,-99.99,,,0.00,weatherlink.com 1.10,2013-03-20 04:23:00,
2013-03-19 21:38:00,45.8,32.0,30.03,WNW,289,2.0,-999.0,60,-99.99,,,0.00,weatherlink.com 1.10,2013-03-20 04:38:00,
2013-03-19 21:53:00,46.3,31.0,30.02,WNW,301,0.0,-999.0,56,-99.99,,,0.00,weatherlink.com 1.10,2013-03-20 04:53:00,
2013-03-19 22:08:00,46.7,31.0,30.04,West,277,0.0,-999.0,54,-99.99,,,0.00,weatherlink.com 1.10,2013-03-20 05:08:00,
2013-03-19 22:23:00,47.1,31.0,30.02,North,0,7.0,-999.0,53,-99.99,,,0.00,weatherlink.com 1.10,2013-03-20 05:23:00,
2013-03-19 22:38:00,46.9,32.0,30.02,NNW,343,0.0,-999.0,56,-99.99,,,0.00,weatherlink.com 1.10,2013-03-20 05:38:00,
2013-03-19 22:53:00,46.3,33.0,30.01,NNE,30,0.0,-999.0,61,-99.99,,,0.00,weatherlink.com 1.10,2013-03-20 05:53:00,
2013-03-19 23:08:00,45.7,34.0,30.01,ESE,120,2.0,-999.0,63,-99.99,,,0.00,weatherlink.com 1.10,2013-03-20 06:08:00,
2013-03-19 23:23:00,45.8,34.0,30.00,SE,128,11.0,-999.0,63,-99.99,,,0.00,weatherlink.com 1.10,2013-03-20 06:23:00,
2013-03-19 23:38:00,45.4,33.0,29.96,NNW,332,0.0,-999.0,62,-99.99,,,0.00,weatherlink.com 1.10,2013-03-20 06:38:00,
2013-03-19 23:53:00,45.4,33.0,29.98,WNW,295,5.0,-999.0,63,-99.99,,,0.00,weatherlink.com 1.10,2013-03-20 06:53:00,